Previsão horária em Barnsley

Hoje, 23 Julho, Sexta-feira

Tempo Temperatura Precipitação Vento Pressão Humidade
00:00 +18°C° 0 mm 1 m/s 756 mmHg 87%
01:00 +16°C° 0 mm 1 m/s 756 mmHg 88%
02:00 +16°C° 0 mm 1 m/s 755 mmHg 89%
03:00 +16°C° 0 mm 1 m/s 755 mmHg 90%
04:00 +16°C° 0 mm 1 m/s 755 mmHg 89%
05:00 +16°C° 0 mm 1 m/s 755 mmHg 87%
06:00 +18°C° 0 mm 1 m/s 755 mmHg 87%
07:00 +19°C° 0 mm 1 m/s 754 mmHg 82%
08:00 +19°C° 0 mm 2 m/s 754 mmHg 78%
09:00 +20°C° 0 mm 2 m/s 754 mmHg 74%
10:00 +23°C° 0 mm 2 m/s 754 mmHg 68%
11:00 +24°C° 0 mm 3 m/s 753 mmHg 61%
12:00 +25°C° 0 mm 3 m/s 753 mmHg 55%
13:00 +26°C° 0 mm 3 m/s 753 mmHg 53%
14:00 +26°C° 0 mm 4 m/s 752 mmHg 50%
15:00 +27°C° 0 mm 4 m/s 752 mmHg 48%
16:00 +25°C° 0 mm 4 m/s 752 mmHg 52%
17:00 +23°C° 0 mm 4 m/s 751 mmHg 57%
18:00 +22°C° 0 mm 5 m/s 751 mmHg 61%
19:00 +20°C° 0 mm 4 m/s 751 mmHg 68%
20:00 +19°C° 0 mm 4 m/s 751 mmHg 74%
21:00 +17°C° 0 mm 3 m/s 751 mmHg 80%
22:00 +16°C° 0 mm 3 m/s 751 mmHg 84%
23:00 +16°C° 0 mm 3 m/s 751 mmHg 87%

Amanhã, 24 Julho, Sábado

Tempo Temperatura Precipitação Vento Pressão Humidade
00:00 +14°C° 0 mm 3 m/s 751 mmHg 91%
01:00 +14°C° 0 mm 3 m/s 750 mmHg 92%
02:00 +14°C° 0 mm 3 m/s 750 mmHg 92%
03:00 +13°C° 0 mm 3 m/s 750 mmHg 93%
04:00 +14°C° 0 mm 3 m/s 749 mmHg 90%
05:00 +14°C° 0 mm 4 m/s 749 mmHg 88%
06:00 +14°C° 0 mm 4 m/s 749 mmHg 85%
07:00 +15°C° 0 mm 4 m/s 749 mmHg 79%
08:00 +17°C° 0 mm 4 m/s 749 mmHg 73%
09:00 +17°C° 0 mm 5 m/s 749 mmHg 68%
10:00 +19°C° 0 mm 5 m/s 748 mmHg 64%
11:00 +19°C° 0 mm 5 m/s 748 mmHg 61%
12:00 +20°C° 0 mm 5 m/s 748 mmHg 58%
13:00 +20°C° 0 mm 5 m/s 748 mmHg 58%
14:00 +20°C° 0 mm 5 m/s 748 mmHg 59%
15:00 +20°C° 0 mm 4 m/s 748 mmHg 60%
16:00 +20°C° 0 mm 4 m/s 748 mmHg 61%
17:00 +19°C° 0 mm 4 m/s 748 mmHg 63%
18:00 +19°C° 0 mm 3 m/s 747 mmHg 65%
19:00 +18°C° 0 mm 3 m/s 748 mmHg 71%
20:00 +16°C° 0 mm 2 m/s 748 mmHg 77%
21:00 +15°C° 0 mm 2 m/s 748 mmHg 84%
22:00 +14°C° 0 mm 2 m/s 748 mmHg 85%
23:00 +14°C° 0 mm 2 m/s 748 mmHg 87%

Depois de amanhã, 25 Julho, Domingo

Tempo Temperatura Precipitação Vento Pressão Humidade
00:00 +13°C° 0 mm 2 m/s 748 mmHg 89%
01:00 +13°C° 0 mm 2 m/s 748 mmHg 89%
02:00 +13°C° 0 mm 2 m/s 747 mmHg 90%
03:00 +13°C° 0 mm 2 m/s 747 mmHg 90%
04:00 +13°C° 0 mm 2 m/s 747 mmHg 88%
05:00 +13°C° 0 mm 2 m/s 747 mmHg 86%
06:00 +14°C° 0 mm 2 m/s 747 mmHg 84%
07:00 +14°C° 0 mm 3 m/s 747 mmHg 78%
08:00 +16°C° 0 mm 3 m/s 747 mmHg 72%
09:00 +18°C° 0 mm 3 m/s 747 mmHg 66%
10:00 +19°C° 0 mm 3 m/s 747 mmHg 61%
11:00 +20°C° 0 mm 3 m/s 747 mmHg 56%
12:00 +22°C° 0 mm 3 m/s 747 mmHg 51%
13:00 +22°C° 0 mm 3 m/s 747 mmHg 50%
14:00 +24°C° 0 mm 3 m/s 747 mmHg 48%
15:00 +25°C° 0 mm 3 m/s 747 mmHg 47%
16:00 +24°C° 0 mm 3 m/s 747 mmHg 50%
17:00 +22°C° 0 mm 3 m/s 747 mmHg 53%
18:00 +22°C° 0 mm 3 m/s 747 mmHg 56%
19:00 +20°C° 0 mm 2 m/s 747 mmHg 63%
20:00 +19°C° 0 mm 2 m/s 747 mmHg 71%
21:00 +18°C° 0 mm 1 m/s 747 mmHg 78%
22:00 +16°C° 0 mm 1 m/s 747 mmHg 80%
23:00 +16°C° 0 mm 1 m/s 747 mmHg 82%

26 Julho, Segunda-feira

Tempo Temperatura Precipitação Vento Pressão Humidade
00:00 +15°C° 0 mm 1 m/s 747 mmHg 84%
01:00 +15°C° 0 mm 1 m/s 747 mmHg 85%
02:00 +15°C° 0 mm 1 m/s 747 mmHg 86%
03:00 +14°C° 0 mm 1 m/s 747 mmHg 87%
04:00 +15°C° 0 mm 1 m/s 747 mmHg 85%
05:00 +16°C° 0 mm 1 m/s 747 mmHg 84%
06:00 +16°C° 0 mm 1 m/s 747 mmHg 82%
07:00 +18°C° 0 mm 2 m/s 747 mmHg 76%
08:00 +20°C° 0 mm 2 m/s 747 mmHg 70%
09:00 +21°C° 0 mm 3 m/s 747 mmHg 64%
10:00 +22°C° 0 mm 3 m/s 747 mmHg 59%
11:00 +24°C° 0 mm 3 m/s 746 mmHg 54%
12:00 +25°C° 0 mm 3 m/s 746 mmHg 49%
13:00 +25°C° 0.1 mm 4 m/s 746 mmHg 50%
14:00 +25°C° 0.1 mm 4 m/s 746 mmHg 50%
15:00 +25°C° 0.1 mm 5 m/s 746 mmHg 50%
16:00 +23°C° 0 mm 4 m/s 746 mmHg 52%
17:00 +22°C° 0 mm 4 m/s 746 mmHg 53%
18:00 +21°C° 0 mm 4 m/s 745 mmHg 55%
19:00 +20°C° 0 mm 4 m/s 745 mmHg 61%
20:00 +19°C° 0 mm 3 m/s 745 mmHg 67%
21:00 +17°C° 0 mm 3 m/s 745 mmHg 74%
22:00 +17°C° 0 mm 2 m/s 745 mmHg 75%
23:00 +17°C° 0 mm 2 m/s 745 mmHg 77%

27 Julho, Terça-feira

Tempo Temperatura Precipitação Vento Pressão Humidade
00:00 +16°C° 0 mm 2 m/s 745 mmHg 79%
01:00 +16°C° 0 mm 2 m/s 745 mmHg 81%
02:00 +16°C° 0 mm 2 m/s 745 mmHg 84%
03:00 +15°C° 0 mm 2 m/s 745 mmHg 86%
04:00 +16°C° 0 mm 2 m/s 745 mmHg 85%
05:00 +16°C° 0 mm 2 m/s 745 mmHg 85%
06:00 +16°C° 0 mm 2 m/s 744 mmHg 84%
07:00 +17°C° 0.2 mm 3 m/s 744 mmHg 83%
08:00 +17°C° 0.2 mm 3 m/s 744 mmHg 83%
09:00 +17°C° 0.2 mm 3 m/s 744 mmHg 82%
10:00 +17°C° 0.5 mm 3 m/s 744 mmHg 82%
11:00 +17°C° 0.5 mm 3 m/s 744 mmHg 81%
12:00 +17°C° 0.5 mm 4 m/s 744 mmHg 81%
13:00 +18°C° 0.3 mm 4 m/s 744 mmHg 75%
14:00 +19°C° 0.3 mm 5 m/s 744 mmHg 70%
15:00 +19°C° 0.3 mm 5 m/s 744 mmHg 64%
16:00 +19°C° 0 mm 5 m/s 744 mmHg 62%
17:00 +19°C° 0 mm 5 m/s 744 mmHg 59%
18:00 +19°C° 0 mm 4 m/s 744 mmHg 57%
19:00 +17°C° 0 mm 4 m/s 744 mmHg 61%
20:00 +15°C° 0 mm 4 m/s 744 mmHg 66%
21:00 +14°C° 0 mm 4 m/s 744 mmHg 70%
22:00 +14°C° 0 mm 4 m/s 744 mmHg 73%
23:00 +14°C° 0 mm 5 m/s 743 mmHg 77%

28 Julho, Quarta-feira

Tempo Temperatura Precipitação Vento Pressão Humidade
00:00 +14°C° 0 mm 6 m/s 743 mmHg 80%
01:00 +13°C° 0.2 mm 6 m/s 743 mmHg 81%
02:00 +13°C° 0.2 mm 6 m/s 742 mmHg 82%
03:00 +12°C° 0.2 mm 5 m/s 742 mmHg 83%
04:00 +12°C° 0 mm 5 m/s 742 mmHg 82%
05:00 +11°C° 0 mm 6 m/s 742 mmHg 81%
06:00 +11°C° 0 mm 6 m/s 742 mmHg 80%
07:00 +13°C° 0.1 mm 6 m/s 742 mmHg 76%
08:00 +14°C° 0.1 mm 7 m/s 742 mmHg 72%
09:00 +15°C° 0.1 mm 7 m/s 742 mmHg 68%
10:00 +16°C° 0.1 mm 7 m/s 743 mmHg 62%
11:00 +17°C° 0.1 mm 7 m/s 743 mmHg 57%
12:00 +17°C° 0.1 mm 8 m/s 743 mmHg 51%
13:00 +18°C° 0 mm 8 m/s 744 mmHg 50%
14:00 +18°C° 0 mm 8 m/s 744 mmHg 49%
15:00 +18°C° 0 mm 8 m/s 744 mmHg 48%
16:00 +18°C° 0 mm 7 m/s 744 mmHg 52%
17:00 +19°C° 0 mm 6 m/s 745 mmHg 56%
18:00 +17°C° 0 mm 6 m/s 745 mmHg 59%
19:00 +16°C° 0 mm 5 m/s 745 mmHg 62%
20:00 +15°C° 0 mm 5 m/s 745 mmHg 66%
21:00 +14°C° 0 mm 4 m/s 746 mmHg 69%
22:00 +14°C° 0 mm 4 m/s 746 mmHg 71%
23:00 +13°C° 0 mm 4 m/s 746 mmHg 72%
Mostrar mais